This demonstration page uses our WeatherBlox Daily Observations layout. Learn more.

Left ArrowRight Arrow

39.51506, -84.39828

Hourly Observations for February 20, 2021

Temp ( °F °C ) Dew Point ( °F °C ) Humidity (%) Winds ( mph kmh ) Pressure ( in mb ) Visibility ( mi km ) Precip ( " mm )
12:15 am 00:15 Clear 8 -13.5 6 -14.6 92 92 Calm 30.45 1031 7 11 0.00 0.00
12:35 am 00:35 Clear with Mist and Fog 7 -13.9 5 -15 91 91 Calm 30.45 1031 5 8 0.00 0.00
12:55 am 00:55 Clear with Mist and Fog 6 -14.5 4 -15.7 91 91 Calm 30.45 1031 4 6 0.00 0.00
1:15 am 01:15 Mostly Cloudy with Mist and Fog 6 -14.2 4 -15.4 91 91 Calm 30.45 1031 3 4 0.00 0.00
1:35 am 01:35 Cloudy with Mist and Fog 6 -14.5 4 -15.8 90 90 Calm 30.46 1031 2 3 0.00 0.00
1:55 am 01:55 Cloudy with Mist and Fog 6 -14.5 4 -15.8 90 90 Calm 30.46 1031 3 5 0.00 0.00
2:15 am 02:15 Cloudy with Mist and Fog 7 -13.8 5 -15 91 91 SW 3 6 30.46 1031 4 6 0.00 0.00
2:35 am 02:35 Cloudy with Mist and Fog 9 -12.8 7 -13.9 92 92 WSW 3 6 30.45 1031 7 11 0.00 0.00
2:55 am 02:55 Cloudy 10 -12.2 8 -13.2 92 92 SSW 6 9 30.45 1031 10 16 0.00 0.00
3:15 am 03:15 Mostly Cloudy 11 -11.5 10 -12.5 92 92 SW 6 9 30.45 1031 10 16 0.00 0.00
3:35 am 03:35 Mostly Cloudy 10 -12.2 8 -13.3 92 92 SSW 8 13 30.44 1031 10 16 0.00 0.00
3:55 am 03:55 Mostly Cloudy 10 -12.1 8 -13.2 92 92 SW 7 11 30.44 1031 10 16 0.00 0.00
4:15 am 04:15 Cloudy 11 -11.9 9 -12.9 92 92 SW 6 9 30.45 1031 10 16 0.00 0.00
4:35 am 04:35 Cloudy 11 -11.4 10 -12.5 92 92 SW 7 11 30.45 1031 10 16 0.00 0.00
4:55 am 04:55 Cloudy 12 -11 9 -13 85 85 SW 7 11 30.45 1031 10 16 0.00 0.00
5:15 am 05:15 Cloudy 12 -11.3 7 -13.7 83 83 SSW 5 7 30.45 1031 10 16 0.00 0.00
5:35 am 05:35 Cloudy 13 -10.8 8 -13.2 83 83 SSW 5 7 30.46 1031 10 16 0.00 0.00
5:55 am 05:55 Cloudy 13 -10.5 9 -13 82 82 SSW 6 9 30.46 1031 10 16 0.00 0.00
6:15 am 06:15 Cloudy 13 -10.5 9 -13 82 82 SSW 6 9 30.46 1031 10 16 0.00 0.00
6:35 am 06:35 Cloudy 13 -10.4 9 -12.9 82 82 SSW 5 7 30.46 1031 10 16 0.00 0.00
6:55 am 06:55 Cloudy 13 -10.4 9 -13 81 81 SSW 5 7 30.46 1031 10 16 0.00 0.00
7:15 am 07:15 Cloudy 14 -10.2 9 -12.7 82 82 SSW 6 9 30.46 1032 7 11 0.00 0.00
7:35 am 07:35 Cloudy with Light Snow 14 -10.1 10 -12.5 83 83 SSW 7 11 30.46 1032 7 11 0.00 0.00
7:55 am 07:55 Cloudy 14 -10.2 10 -12.5 83 83 SW 8 13 30.47 1032 7 11 0.00 0.00
8:15 am 08:15 Cloudy 15 -9.7 10 -12.1 83 83 SW 7 11 30.47 1032 7 11 0.00 0.00
8:35 am 08:35 Cloudy 15 -9.4 11 -11.9 82 82 SW 6 9 30.48 1032 7 11 0.00 0.00
8:55 am 08:55 Cloudy 16 -9 11 -11.7 81 81 SW 7 11 30.48 1032 7 11 0.00 0.00
9:15 am 09:15 Cloudy with Light Snow 17 -8.5 11 -11.6 79 79 SSW 7 11 30.49 1032 7 11 0.00 0.00
9:35 am 09:35 Cloudy 18 -7.8 11 -11.5 75 75 SSW 7 11 30.49 1032 10 16 0.00 0.00
9:55 am 09:55 Mostly Cloudy 19 -7.4 11 -11.6 72 72 SSW 9 15 30.49 1032 10 16 0.00 0.00
10:15 am 10:15 Mostly Cloudy 20 -6.7 11 -11.4 70 70 SSW 8 13 30.49 1033 10 16 0.00 0.00
10:35 am 10:35 Mostly Cloudy 22 -5.8 12 -11.1 67 67 SW 8 13 30.49 1033 10 16 0.00 0.00
10:55 am 10:55 Sunny 23 -5.2 12 -11.1 64 64 SW 8 13 30.49 1033 10 16 0.00 0.00
11:15 am 11:15 Sunny 24 -4.5 13 -10.8 62 62 SW 8 13 30.48 1032 10 16 0.00 0.00
11:35 am 11:35 Sunny 25 -4 13 -10.8 60 60 SW 8 13 30.49 1032 10 16 0.00 0.00
11:55 am 11:55 Sunny 26 -3.5 13 -10.6 58 58 WSW 7 11 30.49 1032 10 16 0.00 0.00
12:15 pm 12:15 Sunny 27 -3 12 -10.9 55 55 WSW 10 17 30.48 1032 10 16 0.00 0.00
12:35 pm 12:35 Sunny 28 -2.5 12 -11.1 52 52 WSW 10 17 30.47 1032 10 16 0.00 0.00
12:55 pm 12:55 Partly Cloudy 28 -2.3 12 -11.3 50 50 W 7 11 30.47 1032 10 16 0.00 0.00
1:15 pm 13:15 Partly Cloudy 29 -1.9 11 -11.6 48 48 WNW 9 15 30.46 1032 10 16 0.00 0.00
1:35 pm 13:35 Sunny 29 -1.9 12 -11.1 50 50 WNW 12 19 30.46 1032 10 16 0.00 0.00
1:55 pm 13:55 Partly Cloudy 29 -1.8 12 -11.1 49 49 W 14 22 30.46 1032 10 16 0.00 0.00
2:15 pm 14:15 Partly Cloudy 29 -1.9 12 -11 50 50 W 14 22 30.46 1032 10 16 0.00 0.00
2:35 pm 14:35 Partly Cloudy 29 -1.9 13 -10.8 51 51 WNW 10 17 30.46 1032 10 16 0.00 0.00
2:55 pm 14:55 Sunny 28 -2 12 -11.1 50 50 W 6 9 30.46 1032 10 16 0.00 0.00
3:15 pm 15:15 Sunny 29 -1.9 13 -10.8 51 51 NW 6 9 30.46 1032 10 16 0.00 0.00
3:35 pm 15:35 Sunny 29 -1.9 13 -10.3 53 53 W 9 15 30.46 1032 10 16 0.00 0.00
3:55 pm 15:55 Sunny 29 -1.4 12 -11 48 48 WNW 7 11 30.46 1031 10 16 0.00 0.00
4:15 pm 16:15 Partly Cloudy 29 -1.4 12 -11 48 48 W 7 11 30.46 1031 10 16 0.00 0.00
4:35 pm 16:35 Sunny 29 -1.4 12 -11.1 48 48 N 3 6 30.45 1031 10 16 0.00 0.00
4:55 pm 16:55 Sunny 29 -1.4 12 -11.3 47 47 Calm 30.45 1031 10 16 0.00 0.00
5:15 pm 17:15 Sunny 29 -1.4 12 -11.2 48 48 Calm 30.46 1031 10 16 0.00 0.00
5:35 pm 17:35 Sunny 28 -2.1 12 -11.3 50 50 Calm 30.45 1031 10 16 0.00 0.00
5:55 pm 17:55 Sunny 28 -2.1 11 -11.5 49 49 Calm 30.46 1032 10 16 0.00 0.00
6:15 pm 18:15 Sunny 27 -3 11 -11.9 51 51 Calm 30.46 1032 10 16 0.00 0.00
6:35 pm 18:35 Clear 25 -4.1 11 -11.9 55 55 Calm 30.48 1032 10 16 0.00 0.00
6:55 pm 18:55 Clear 24 -4.2 15 -9.5 67 67 Calm 30.49 1032 10 16 0.00 0.00
7:15 pm 19:15 Clear 24 -4.7 15 -9.4 70 70 N 3 6 30.49 1032 10 16 0.00 0.00
7:35 pm 19:35 Clear 21 -5.9 14 -9.9 74 74 Calm 30.50 1033 10 16 0.00 0.00
7:55 pm 19:55 Clear 21 -6.1 15 -9.2 79 79 N 3 6 30.49 1033 10 16 0.00 0.00
8:15 pm 20:15 Clear 18 -7.7 14 -10.2 82 82 Calm 30.51 1033 10 16 0.00 0.00
8:35 pm 20:35 Clear 16 -8.8 13 -10.7 86 86 Calm 30.51 1033 10 16 0.00 0.00
8:55 pm 20:55 Clear 18 -8 14 -10.2 84 84 Calm 30.51 1033 10 16 0.00 0.00
9:15 pm 21:15 Clear 15 -9.5 11 -11.6 85 85 Calm 30.51 1033 10 16 0.00 0.00
9:35 pm 21:35 Clear 15 -9.3 13 -10.4 92 92 Calm 30.52 1034 10 16 0.00 0.00
9:55 pm 21:55 Clear 15 -9.3 11 -11.4 85 85 Calm 30.52 1034 10 16 0.00 0.00
10:15 pm 22:15 Clear 14 -9.9 11 -11.8 86 86 Calm 30.53 1034 10 16 0.00 0.00
10:35 pm 22:35 Clear 13 -10.3 11 -11.5 91 91 NNW 5 7 30.54 1034 10 16 0.00 0.00
10:55 pm 22:55 Clear 11 -11.5 8 -13.2 87 87 Calm 30.54 1034 10 16 0.00 0.00
11:15 pm 23:15 Clear 10 -12 8 -13.4 89 89 N 3 6 30.54 1034 10 16 0.00 0.00
11:35 pm 23:35 Clear 10 -12 8 -13.2 91 91 Calm 30.54 1034 10 16 0.00 0.00
11:55 pm 23:55 Clear 12 -11.1 10 -12.4 90 90 Calm 30.54 1034 10 16 0.00 0.00

Powered by AerisWeather